Location: Boss Branch
(32.3799°N, 97.2508°W)
Time: 03:17:46
(UTC+00:00)

Hubble Space Telescope - Visible Passes

Search period start: 19 January 2026 00:00
Search period end: 29 January 2026 00:00
Orbit: 479 x 481 km, 28.5° (Epoch: 18 January)

Date Brightness Start Highest point End Pass type
(mag) Time Alt. Az. Time Alt. Az. Time Alt. Az.
22 Jan 3.2 02:11:01 10° SW 02:11:52 15° SW 02:11:52 15° SW visible
23 Jan 2.1 01:41:14 10° SW 01:43:51 26° S 01:43:51 26° S visible
24 Jan 1.9 01:11:26 10° SW 01:14:42 28° SSE 01:15:49 24° SE visible
25 Jan 2.0 00:41:37 10° SW 00:44:53 28° SSE 00:47:45 12° ESE visible
25 Jan 3.3 02:20:50 10° WSW 02:21:53 17° WSW 02:21:53 17° WSW visible
26 Jan 1.7 01:51:00 10° WSW 01:53:48 38° SW 01:53:48 38° SW visible
27 Jan 1.2 01:21:10 10° WSW 01:24:48 45° S 01:25:42 37° SE visible
28 Jan 1.3 00:51:20 10° WSW 00:54:57 46° S 00:57:38 16° ESE visible
28 Jan 3.6 02:31:05 10° WSW 02:31:45 14° WSW 02:31:45 14° WSW visible
